Time,TemperatureF,DewpointF,PressureIn,WindDirection,WindDirectionDegrees,WindSpeedMPH,WindSpeedGustMPH,Humidity,HourlyPrecipIn,Conditions,Clouds,dailyrainin,SoftwareType,DateUTC
2013-01-04 00:02:00,38.0,27.6,29.92,NNW,337,9.0,10.0,66,0.00,,,0.00,Weather View 32 v70,2013-01-04 05:02:00,
2013-01-04 00:03:00,38.0,27.6,29.92,NNW,337,9.0,10.0,66,0.00,,,0.00,Weather View 32 v70,2013-01-04 05:03:00,
2013-01-04 00:17:00,38.0,27.6,29.92,NNW,337,9.0,11.0,66,0.00,,,0.00,Weather View 32 v70,2013-01-04 05:17:00,
2013-01-04 00:32:00,37.0,27.1,29.92,NNW,337,9.0,11.0,67,0.00,,,0.00,Weather View 32 v70,2013-01-04 05:32:00,
2013-01-04 00:47:00,37.0,27.1,29.93,NNW,337,7.0,11.0,67,0.00,,,0.00,Weather View 32 v70,2013-01-04 05:47:00,
2013-01-04 01:02:00,37.0,27.1,29.93,NNW,337,7.0,11.0,67,0.00,,,0.00,Weather View 32 v70,2013-01-04 06:02:00,
2013-01-04 01:17:00,36.0,26.1,29.92,NNW,337,8.0,10.0,67,0.00,,,0.00,Weather View 32 v70,2013-01-04 06:17:00,
2013-01-04 01:32:00,36.0,26.1,29.93,NNW,337,9.0,10.0,67,0.00,,,0.00,Weather View 32 v70,2013-01-04 06:32:00,
2013-01-04 01:47:00,36.0,26.1,29.93,NNW,337,5.0,10.0,67,0.00,,,0.00,Weather View 32 v70,2013-01-04 06:47:00,
2013-01-04 02:02:00,37.0,27.1,29.93,NNW,337,6.0,10.0,67,0.00,,,0.00,Weather View 32 v70,2013-01-04 07:02:00,
2013-01-04 02:17:00,36.0,26.1,29.93,NNW,337,2.0,9.0,67,0.00,,,0.00,Weather View 32 v70,2013-01-04 07:17:00,
2013-01-04 02:32:00,35.0,25.1,29.93,NNW,337,5.0,9.0,67,0.00,,,0.00,Weather View 32 v70,2013-01-04 07:32:00,
2013-01-04 02:47:00,35.0,25.1,29.95,NNW,337,8.0,12.0,67,0.00,,,0.00,Weather View 32 v70,2013-01-04 07:47:00,
2013-01-04 03:02:00,35.0,24.8,29.94,NNW,337,9.0,12.0,66,0.00,,,0.00,Weather View 32 v70,2013-01-04 08:02:00,
2013-01-04 03:17:00,34.0,23.8,29.94,NNW,337,9.0,12.0,66,0.00,,,0.00,Weather View 32 v70,2013-01-04 08:17:00,
2013-01-04 03:32:00,34.0,23.8,29.95,NNW,337,9.0,12.0,66,0.00,,,0.00,Weather View 32 v70,2013-01-04 08:32:00,
2013-01-04 03:47:00,34.0,23.8,29.96,NNW,337,11.0,12.0,66,0.00,,,0.00,Weather View 32 v70,2013-01-04 08:47:00,
2013-01-04 04:02:00,34.0,24.2,29.96,NNW,337,7.0,13.0,67,0.00,,,0.00,Weather View 32 v70,2013-01-04 09:02:00,
2013-01-04 04:17:00,34.0,24.2,29.98,NNW,337,7.0,13.0,67,0.00,,,0.00,Weather View 32 v70,2013-01-04 09:17:00,
2013-01-04 04:32:00,34.0,24.2,29.97,NNW,337,7.0,13.0,67,0.00,,,0.00,Weather View 32 v70,2013-01-04 09:32:00,
2013-01-04 04:47:00,33.0,22.9,29.95,NNW,337,6.0,13.0,66,0.00,,,0.00,Weather View 32 v70,2013-01-04 09:47:00,
2013-01-04 05:02:00,33.0,23.2,29.96,NNW,337,5.0,10.0,67,0.00,,,0.00,Weather View 32 v70,2013-01-04 10:02:00,
2013-01-04 05:17:00,33.0,22.9,29.96,NNW,337,6.0,9.0,66,0.00,,,0.00,Weather View 32 v70,2013-01-04 10:17:00,
2013-01-04 05:32:00,33.0,23.2,29.97,WSW,247,6.0,9.0,67,0.00,,,0.00,Weather View 32 v70,2013-01-04 10:32:00,
2013-01-04 05:47:00,33.0,23.2,29.97,NNW,337,6.0,9.0,67,0.00,,,0.00,Weather View 32 v70,2013-01-04 10:47:00,
2013-01-04 06:02:00,33.0,23.2,29.96,NNW,337,6.0,9.0,67,0.00,,,0.00,Weather View 32 v70,2013-01-04 11:02:00,
2013-01-04 06:17:00,34.0,24.5,29.96,NNW,337,9.0,11.0,68,0.00,,,0.00,Weather View 32 v70,2013-01-04 11:17:00,
2013-01-04 06:32:00,34.0,24.2,29.97,NNW,337,8.0,11.0,67,0.00,,,0.00,Weather View 32 v70,2013-01-04 11:32:00,
2013-01-04 06:47:00,34.0,24.5,29.98,NNW,337,7.0,11.0,68,0.00,,,0.00,Weather View 32 v70,2013-01-04 11:47:00,
2013-01-04 07:02:00,33.0,22.9,29.98,NNW,337,7.0,11.0,66,0.00,,,0.00,Weather View 32 v70,2013-01-04 12:02:00,
2013-01-04 07:17:00,33.0,23.6,29.98,NNW,337,6.0,9.0,68,0.00,,,0.00,Weather View 32 v70,2013-01-04 12:17:00,
2013-01-04 07:32:00,34.0,23.8,29.98,NNW,337,7.0,9.0,66,0.00,,,0.00,Weather View 32 v70,2013-01-04 12:32:00,
2013-01-04 07:47:00,34.0,24.5,29.98,NNW,337,5.0,9.0,68,0.00,,,0.00,Weather View 32 v70,2013-01-04 12:47:00,
2013-01-04 08:02:00,35.0,24.8,29.98,NNW,337,3.0,9.0,66,0.00,,,0.00,Weather View 32 v70,2013-01-04 13:02:00,
2013-01-04 08:08:00,35.0,24.8,29.98,NNW,337,3.0,9.0,66,0.00,,,0.00,Weather View 32 v70,2013-01-04 13:08:00,
2013-01-04 08:17:00,36.0,26.5,29.98,NNW,337,4.0,8.0,68,0.00,,,0.00,Weather View 32 v70,2013-01-04 13:17:00,
2013-01-04 08:32:00,37.0,27.1,29.98,NNW,337,7.0,9.0,67,0.00,,,0.00,Weather View 32 v70,2013-01-04 13:32:00,
2013-01-04 08:47:00,38.0,28.4,29.99,NNW,337,7.0,11.0,68,0.00,,,0.00,Weather View 32 v70,2013-01-04 13:47:00,
2013-01-04 09:02:00,40.0,30.3,29.98,NNW,337,6.0,14.0,68,0.00,,,0.00,Weather View 32 v70,2013-01-04 14:02:00,
2013-01-04 09:08:00,40.0,30.3,29.98,NNW,337,6.0,14.0,68,0.00,,,0.00,Weather View 32 v70,2013-01-04 14:08:00,
2013-01-04 09:17:00,42.0,32.6,29.97,NNW,337,8.0,15.0,69,0.00,,,0.00,Weather View 32 v70,2013-01-04 14:17:00,
2013-01-04 09:32:00,43.0,33.5,29.97,NNW,337,7.0,15.0,69,0.00,,,0.00,Weather View 32 v70,2013-01-04 14:32:00,
2013-01-04 09:47:00,44.0,35.2,29.97,NNW,337,7.0,15.0,71,0.00,,,0.00,Weather View 32 v70,2013-01-04 14:47:00,
2013-01-04 10:02:00,45.0,35.4,29.99,NNW,337,9.0,15.0,69,0.00,,,0.00,Weather View 32 v70,2013-01-04 15:02:00,
2013-01-04 10:09:00,45.0,35.4,29.99,NNW,337,9.0,15.0,69,0.00,,,0.00,Weather View 32 v70,2013-01-04 15:09:00,
2013-01-04 10:17:00,45.0,36.2,29.97,NNW,337,8.0,15.0,71,0.00,,,0.00,Weather View 32 v70,2013-01-04 15:17:00,
2013-01-04 10:32:00,44.0,34.8,29.98,NNW,337,9.0,15.0,70,0.00,,,0.00,Weather View 32 v70,2013-01-04 15:32:00,
2013-01-04 10:47:00,45.0,36.2,29.96,NNW,337,7.0,17.0,71,0.00,,,0.00,Weather View 32 v70,2013-01-04 15:47:00,
2013-01-04 11:02:00,45.0,35.8,29.97,NNW,337,12.0,17.0,70,0.00,,,0.00,Weather View 32 v70,2013-01-04 16:02:00,
2013-01-04 11:09:00,45.0,35.8,29.97,NNW,337,12.0,17.0,70,0.00,,,0.00,Weather View 32 v70,2013-01-04 16:09:00,
2013-01-04 11:17:00,46.0,37.1,29.96,NNW,337,4.0,17.0,71,0.00,,,0.00,Weather View 32 v70,2013-01-04 16:17:00,
2013-01-04 11:32:00,47.0,37.7,29.93,NNW,337,6.0,17.0,70,0.00,,,0.00,Weather View 32 v70,2013-01-04 16:32:00,
2013-01-04 11:47:00,47.0,38.1,29.92,NNW,337,12.0,17.0,71,0.00,,,0.00,Weather View 32 v70,2013-01-04 16:47:00,
2013-01-04 12:00:00,47.0,37.7,29.92,NNW,337,12.0,17.0,70,0.00,,,0.00,Weather View 32 v70,2013-01-04 17:00:00,
2013-01-04 12:02:00,47.0,37.7,29.92,NNW,337,12.0,17.0,70,0.00,,,0.00,Weather View 32 v70,2013-01-04 17:02:00,
2013-01-04 12:17:00,48.0,39.4,29.90,NNW,337,12.0,17.0,72,0.00,,,0.00,Weather View 32 v70,2013-01-04 17:17:00,
2013-01-04 12:32:00,48.0,39.4,29.89,WSW,247,16.0,19.0,72,0.00,,,0.00,Weather View 32 v70,2013-01-04 17:32:00,
2013-01-04 12:47:00,49.0,40.4,29.90,WSW,247,10.0,19.0,72,0.00,,,0.00,Weather View 32 v70,2013-01-04 17:47:00,
2013-01-04 13:00:00,50.0,41.3,29.88,WSW,247,8.0,19.0,72,0.00,,,0.00,Weather View 32 v70,2013-01-04 18:00:00,
2013-01-04 13:02:00,50.0,41.3,29.88,WSW,247,8.0,19.0,72,0.00,,,0.00,Weather View 32 v70,2013-01-04 18:02:00,
2013-01-04 13:17:00,50.0,41.3,29.88,WSW,247,7.0,19.0,72,0.00,,,0.00,Weather View 32 v70,2013-01-04 18:17:00,
2013-01-04 13:32:00,50.0,41.3,29.85,WSW,247,9.0,19.0,72,0.00,,,0.00,Weather View 32 v70,2013-01-04 18:32:00,
2013-01-04 13:47:00,50.0,41.3,29.85,WSW,247,8.0,16.0,72,0.00,,,0.00,Weather View 32 v70,2013-01-04 18:47:00,
2013-01-04 14:00:00,51.0,42.3,29.84,WSW,247,12.0,19.0,72,0.00,,,0.00,Weather View 32 v70,2013-01-04 19:00:00,
2013-01-04 14:02:00,51.0,42.3,29.84,WSW,247,12.0,19.0,72,0.00,,,0.00,Weather View 32 v70,2013-01-04 19:02:00,
2013-01-04 14:17:00,51.0,42.3,29.83,WSW,247,17.0,19.0,72,0.00,,,0.00,Weather View 32 v70,2013-01-04 19:17:00,
2013-01-04 14:32:00,51.0,42.3,29.83,WSW,247,17.0,20.0,72,0.00,,,0.00,Weather View 32 v70,2013-01-04 19:32:00,
2013-01-04 14:47:00,52.0,43.2,29.83,WSW,247,13.0,20.0,72,0.00,,,0.00,Weather View 32 v70,2013-01-04 19:47:00,
2013-01-04 15:00:00,52.0,43.2,29.84,WSW,247,11.0,20.0,72,0.00,,,0.00,Weather View 32 v70,2013-01-04 20:00:00,
2013-01-04 15:02:00,52.0,43.2,29.84,WSW,247,11.0,20.0,72,0.00,,,0.00,Weather View 32 v70,2013-01-04 20:02:00,
2013-01-04 15:17:00,52.0,43.2,29.85,WSW,247,9.0,20.0,72,0.00,,,0.00,Weather View 32 v70,2013-01-04 20:17:00,
2013-01-04 15:32:00,52.0,43.2,29.85,WSW,247,10.0,20.0,72,0.00,,,0.00,Weather View 32 v70,2013-01-04 20:32:00,
2013-01-04 15:47:00,53.0,44.2,29.83,WSW,247,10.0,16.0,72,0.00,,,0.00,Weather View 32 v70,2013-01-04 20:47:00,
2013-01-04 16:00:00,52.0,43.2,29.84,WSW,247,9.0,15.0,72,0.00,,,0.00,Weather View 32 v70,2013-01-04 21:00:00,
2013-01-04 16:02:00,52.0,43.2,29.84,WSW,247,9.0,15.0,72,0.00,,,0.00,Weather View 32 v70,2013-01-04 21:02:00,
2013-01-04 16:17:00,52.0,43.2,29.83,WSW,247,6.0,17.0,72,0.00,,,0.00,Weather View 32 v70,2013-01-04 21:17:00,
2013-01-04 16:32:00,51.0,42.3,29.84,WSW,247,10.0,17.0,72,0.00,,,0.00,Weather View 32 v70,2013-01-04 21:32:00,
2013-01-04 16:47:00,51.0,42.3,29.83,WSW,247,9.0,17.0,72,0.00,,,0.00,Weather View 32 v70,2013-01-04 21:47:00,
2013-01-04 17:00:00,50.0,41.3,29.85,WSW,247,7.0,17.0,72,0.00,,,0.00,Weather View 32 v70,2013-01-04 22:00:00,
2013-01-04 17:02:00,50.0,41.3,29.85,WSW,247,7.0,17.0,72,0.00,,,0.00,Weather View 32 v70,2013-01-04 22:02:00,
2013-01-04 17:17:00,49.0,40.4,29.84,WSW,247,7.0,14.0,72,0.00,,,0.00,Weather View 32 v70,2013-01-04 22:17:00,
2013-01-04 17:32:00,48.0,39.4,29.83,WSW,247,7.0,12.0,72,0.00,,,0.00,Weather View 32 v70,2013-01-04 22:32:00,
2013-01-04 17:47:00,47.0,38.1,29.87,WSW,247,7.0,12.0,71,0.00,,,0.00,Weather View 32 v70,2013-01-04 22:47:00,
2013-01-04 18:00:00,47.0,38.1,29.88,WSW,247,8.0,11.0,71,0.00,,,0.00,Weather View 32 v70,2013-01-04 23:00:00,
2013-01-04 18:02:00,47.0,38.1,29.88,WSW,247,8.0,11.0,71,0.00,,,0.00,Weather View 32 v70,2013-01-04 23:02:00,
2013-01-04 18:17:00,46.0,37.1,29.88,WSW,247,9.0,10.0,71,0.00,,,0.00,Weather View 32 v70,2013-01-04 23:17:00,
2013-01-04 18:32:00,46.0,37.1,29.88,WSW,247,10.0,15.0,71,0.00,,,0.00,Weather View 32 v70,2013-01-04 23:32:00,
2013-01-04 18:47:00,45.0,36.2,29.91,WSW,247,9.0,15.0,71,0.00,,,0.00,Weather View 32 v70,2013-01-04 23:47:00,
2013-01-04 19:00:00,45.0,36.2,29.89,WSW,247,8.0,15.0,71,0.00,,,0.00,Weather View 32 v70,2013-01-05 00:00:00,
2013-01-04 19:02:00,45.0,36.2,29.89,WSW,247,8.0,15.0,71,0.00,,,0.00,Weather View 32 v70,2013-01-05 00:02:00,
2013-01-04 19:17:00,45.0,36.2,29.90,WSW,247,9.0,15.0,71,0.00,,,0.00,Weather View 32 v70,2013-01-05 00:17:00,
2013-01-04 19:32:00,44.0,35.2,29.92,WSW,247,11.0,13.0,71,0.00,,,0.00,Weather View 32 v70,2013-01-05 00:32:00,
2013-01-04 19:47:00,44.0,35.2,29.93,WSW,247,9.0,13.0,71,0.00,,,0.00,Weather View 32 v70,2013-01-05 00:47:00,
2013-01-04 20:00:00,44.0,35.2,29.93,WSW,247,9.0,13.0,71,0.00,,,0.00,Weather View 32 v70,2013-01-05 01:00:00,
2013-01-04 20:02:00,44.0,35.2,29.93,WSW,247,9.0,13.0,71,0.00,,,0.00,Weather View 32 v70,2013-01-05 01:02:00,
2013-01-04 20:17:00,44.0,35.2,29.94,WSW,247,10.0,13.0,71,0.00,,,0.00,Weather View 32 v70,2013-01-05 01:17:00,
2013-01-04 20:32:00,43.0,34.2,29.93,WSW,247,7.0,12.0,71,0.00,,,0.00,Weather View 32 v70,2013-01-05 01:32:00,
2013-01-04 20:47:00,43.0,34.2,29.93,WSW,247,7.0,12.0,71,0.00,,,0.00,Weather View 32 v70,2013-01-05 01:47:00,
2013-01-04 21:00:00,43.0,34.2,29.93,WSW,247,7.0,12.0,71,0.00,,,0.00,Weather View 32 v70,2013-01-05 02:00:00,
2013-01-04 21:02:00,43.0,34.2,29.93,WSW,247,7.0,12.0,71,0.00,,,0.00,Weather View 32 v70,2013-01-05 02:02:00,
2013-01-04 21:17:00,43.0,34.2,29.95,WSW,247,7.0,11.0,71,0.00,,,0.00,Weather View 32 v70,2013-01-05 02:17:00,
2013-01-04 21:32:00,42.0,32.9,29.95,WSW,247,7.0,10.0,70,0.00,,,0.00,Weather View 32 v70,2013-01-05 02:32:00,
2013-01-04 21:47:00,42.0,32.9,29.94,WSW,247,7.0,9.0,70,0.00,,,0.00,Weather View 32 v70,2013-01-05 02:47:00,
2013-01-04 22:00:00,42.0,32.9,29.94,WSW,247,9.0,10.0,70,0.00,,,0.00,Weather View 32 v70,2013-01-05 03:00:00,
2013-01-04 22:02:00,42.0,32.9,29.94,WSW,247,9.0,10.0,70,0.00,,,0.00,Weather View 32 v70,2013-01-05 03:02:00,
2013-01-04 22:17:00,42.0,32.9,29.94,WSW,247,9.0,12.0,70,0.00,,,0.00,Weather View 32 v70,2013-01-05 03:17:00,
2013-01-04 22:32:00,42.0,32.9,29.95,WSW,247,11.0,13.0,70,0.00,,,0.00,Weather View 32 v70,2013-01-05 03:32:00,
2013-01-04 22:47:00,43.0,34.2,29.94,WSW,247,7.0,13.0,71,0.00,,,0.00,Weather View 32 v70,2013-01-05 03:47:00,
2013-01-04 23:00:00,43.0,34.2,29.94,WSW,247,10.0,14.0,71,0.00,,,0.00,Weather View 32 v70,2013-01-05 04:00:00,
2013-01-04 23:02:00,43.0,34.2,29.94,WSW,247,10.0,14.0,71,0.00,,,0.00,Weather View 32 v70,2013-01-05 04:02:00,
2013-01-04 23:17:00,43.0,34.2,29.95,WSW,247,10.0,14.0,71,0.00,,,0.00,Weather View 32 v70,2013-01-05 04:17:00,
2013-01-04 23:32:00,42.0,32.9,29.95,WSW,247,10.0,14.0,70,0.00,,,0.00,Weather View 32 v70,2013-01-05 04:32:00,
2013-01-04 23:47:00,42.0,32.9,29.95,WSW,247,10.0,14.0,70,0.00,,,0.00,Weather View 32 v70,2013-01-05 04:47:00,